This is the latest recevied weather packets stored in our database for station/object PY2UTU-WX. If no packets are shown the sender has not sent any weather packets the latest 10 day(s).
| Time | Temp. | Humidity | Pressure | Rain* | Wind** | Luminosity | Snow |
|---|---|---|---|---|---|---|---|
| 1777877844 | 16.67° C | 98% | 925.9 hPa | - | - | - | - |
| 1777876944 | 16.67° C | 98% | 926 hPa | - | - | - | - |
| 1777876044 | 17.22° C | 98% | 926 hPa | - | - | - | - |
| 1777875144 | 16.67° C | 98% | 926.2 hPa | - | - | - | - |
| 1777874244 | 17.78° C | 98% | 926.1 hPa | - | - | - | - |
| 1777873345 | 16.11° C | 98% | 926.5 hPa | - | - | - | - |
| 1777872445 | 16.67° C | 98% | 926.5 hPa | - | - | - | - |
| 1777871544 | 17.22° C | 98% | 926.5 hPa | - | - | - | - |
| 1777870644 | 16.67° C | 98% | 926.5 hPa | - | - | - | - |
| 1777869744 | 16.67° C | 98% | 926.7 hPa | - | - | - | - |
| 1777868844 | 16.67° C | 98% | 926.8 hPa | - | - | - | - |
| 1777867944 | 16.67° C | 98% | 926.9 hPa | - | - | - | - |
| 1777867044 | 16.11° C | 98% | 927 hPa | - | - | - | - |
| 1777866144 | 16.67° C | 98% | 927.2 hPa | - | - | - | - |
| 1777865244 | 16.11° C | 98% | 927.2 hPa | - | - | - | - |
| 1777864344 | 16.11° C | 98% | 927.6 hPa | - | - | - | - |
| 1777863444 | 16.11° C | 98% | 927.4 hPa | - | - | - | - |
| 1777862544 | 15.56° C | 98% | 927.5 hPa | - | - | - | - |
| 1777861644 | 16.11° C | 98% | 927.6 hPa | - | - | - | - |
| 1777860744 | 15.56° C | 98% | 927.7 hPa | - | - | - | - |
| 1777859844 | 16.11° C | 98% | 927.6 hPa | - | - | - | - |
| 1777858944 | 15.56° C | 98% | 927.6 hPa | - | - | - | - |
| 1777858044 | 16.11° C | 98% | 927.6 hPa | - | - | - | - |
| 1777857144 | 15.56° C | 98% | 927.8 hPa | - | - | - | - |
| 1777856244 | 15.56° C | 98% | 928 hPa | - | - | - | - |
* Rain since midnight (hover to see other rain measurements)
** Current wind speed in m/s (hover to see current wind gust speed)